sat.trackr.live / text

‹ back to catalog

HODOYOSHI-3

NORAD 40015 · 2014-033F

PAYLOAD ACTIVE UNKNOWN

§ Identity

Operator
Country
JPN
Launch date
2014-06-19
Launch site
DLS
Launch vehicle
Mass (kg)
RCS (m²)
0.35

Purposes: earth_obs

External: N2YO · Heavens-Above · Gunter

§ Orbital elements

Epoch: 2026-09-09T22:11:11.204736Z

Period
96.93 min
Inclination
97.6521°
Eccentricity
0.0034194
Mean motion
14.85549316 rev/d
Perigee alt
588.0 km
Apogee alt
635.8 km
Semi-major
6,990.0 km
B*
9.8660e-5
RAAN
52.6147°
Arg perigee
76.1466°
Mean anomaly
284.3550°
Rev number
66,020

§ Raw data

HODOYOSHI-31 40015U 14033F   26252.92443524  .00000809  00000+0  98660-4 0  99902 40015  97.6521  52.6147 0034194  76.1466 284.3550 14.85549316660205

JSON: /api/v1/satellites/40015 · /tle

For live sub-satellite position, see the globe view (requires WebGL).

§ Visibility from observer

Set your observer location to see the next 7 days of passes ≥ 10°. The values pass through the URL so the page stays shareable.

No JS? Fill the form by hand. The geolocation button needs JavaScript.

§ Radio — SatNOGS DB

ModeDescriptionDownlinkUplink
FM S-band telemetry 2.264 GHz

1 transmitter · refreshed weekly from db.satnogs.org